EW5670 Weather Reports


time (UTC)temp
C
wind
direction
speed
KPH
gust
KPH
rain 1hr
cm
rain 24hr
cm
rain mn
cm
humidity
%
barometer
mb
20260507141129 16 125 1.6 4.8 0.00 0.00 0.00 45 1015.8
20260507140128 16 62 3.2 9.7 0.00 0.00 0.00 44 1015.9
20260507134128 17 209 4.8 14.5 0.00 0.00 0.00 43 1016.0
20260507133128 17 215 3.2 9.7 0.00 0.00 0.00 44 1015.9
20260507132127 17 53 3.2 11.3 0.00 0.00 0.00 43 1015.9
20260507131127 16 165 3.2 9.7 0.00 0.00 0.00 45 1016.1
20260507130128 16 141 3.2 11.3 0.00 0.00 0.00 45 1016.2
20260507124128 17 154 4.8 12.9 0.00 0.00 0.00 44 1016.2
20260507123128 17 84 3.2 11.3 0.00 0.00 0.00 45 1016.2
20260507122128 17 48 1.6 8.0 0.00 0.00 0.00 44 1016.2
20260507121129 17 123 4.8 12.9 0.00 0.00 0.00 46 1016.4
20260507120126 16 234 3.2 11.3 0.00 0.00 0.00 47 1016.5
20260507115126 16 121 1.6 6.4 0.00 0.00 0.00 52 1016.6
20260507113126 16 105 1.6 9.7 0.00 0.00 0.00 58 1016.5
20260507112127 15 34 3.2 9.7 0.00 0.00 0.00 59 1016.5
20260507111125 15 12 1.6 4.8 0.00 0.00 0.00 57 1016.6
20260507110126 14 105 1.6 6.4 0.00 0.00 0.00 60 1017.0
20260507104124 13 229 3.2 11.3 0.00 0.00 0.00 68 1017.2
20260507103122 12 139 3.2 9.7 0.00 0.00 0.00 69 1017.2
20260507102122 12 245 3.2 9.7 0.00 0.00 0.00 70 1017.3
20260507101121 12 178 3.2 9.7 0.00 0.00 0.00 70 1017.2
20260507100120 12 158 1.6 8.0 0.00 0.00 0.00 71 1017.3
20260507095121 12 174 1.6 4.8 0.00 0.00 0.00 72 1017.2
20260507094115 11 166 1.6 4.8 0.00 0.00 0.00 74 1017.2
20260507093116 11 119 1.6 4.8 0.00 0.00 0.00 74 1017.2
20260507091115 10 108 1.6 4.8 0.00 0.00 0.00 77 1017.3
20260507090115 10 55 1.6 6.4 0.00 0.00 0.00 77 1017.2
20260507085114 10 55 1.6 6.4 0.00 0.00 0.00 78 1017.2
20260507083113 10 108 0.0 3.2 0.00 0.00 0.00 80 1017.2
20260507082111 9 172 0.0 3.2 0.00 0.00 0.00 81 1017.2
20260507081111 9 160 0.0 3.2 0.00 0.00 0.00 82 1017.2
20260507080109 8 127 1.6 8.0 0.00 0.00 0.00 84 1017.3
20260507075109 8 53 1.6 4.8 0.00 0.00 0.00 84 1017.2
20260507074111 8 58 1.6 6.4 0.00 0.00 0.00 85 1017.1
20260507073109 8 16 1.6 6.4 0.00 0.00 0.00 85 1017.2
20260507071111 7 55 1.6 6.4 0.00 0.00 0.00 87 1017.1
20260507070109 7 38 1.6 4.8 0.00 0.00 0.00 87 1017.0
20260507065110 7 41 0.0 4.8 0.00 0.00 0.00 88 1017.0
20260507064109 6 13 1.6 8.0 0.00 0.00 0.00 88 1017.0
20260507063109 6 56 1.6 6.4 0.00 0.00 0.00 88 1016.9
20260507062111 6 45 1.6 6.4 0.00 0.00 0.00 88 1017.0
20260507061109 6 8 1.6 3.2 0.00 0.00 0.00 89 1017.0
20260507055109 5 47 1.6 4.8 0.00 0.00 0.00 89 1016.9
20260507054109 5 31 1.6 4.8 0.00 0.00 0.00 89 1016.8
20260507052104 5 24 0.0 4.8 0.00 0.00 0.00 90 1016.7
20260507051103 4 37 0.0 3.2 0.00 0.00 0.00 90 1016.7
20260507045059 4 5 0.0 1.6 0.00 0.00 0.00 90 1016.8
20260507043059 3 27 0.0 1.6 0.00 0.00 0.00 90 1016.8
20260507042058 3 27 0.0 0.0 0.00 0.00 0.00 90 1016.7
20260507040057 4 29 0.0 3.2 0.00 0.00 0.00 89 1016.6
20260507034057 4 58 0.0 3.2 0.00 0.00 0.00 89 1016.6
20260507033056 4 32 0.0 1.6 0.00 0.00 0.00 89 1016.7
20260507032056 4 23 0.0 1.6 0.00 0.00 0.00 89 1016.8
20260507031057 4 22 0.0 1.6 0.00 0.00 0.00 88 1016.8
20260507030054 4 22 0.0 1.6 0.00 0.00 0.00 89 1016.7
20260507023056 5 15 0.0 1.6 0.00 0.00 0.00 88 1016.6
20260507022108 5 15 1.6 4.8 0.00 0.00 0.00 88 1016.6
20260507021055 5 36 0.0 1.6 0.00 0.00 0.00 88 1016.6
20260507020053 5 35 0.0 3.2 0.00 0.00 0.00 88 1016.6
20260507015100 5 44 0.0 3.2 0.00 0.00 0.00 88 1016.7
20260507014052 5 73 1.6 6.4 0.00 0.00 0.00 87 1016.6
20260507010053 5 58 1.6 8.0 0.00 0.00 0.00 87 1016.7
20260507004050 5 25 1.6 6.4 0.00 0.00 0.00 86 1016.8
20260507003051 6 39 1.6 6.4 0.00 0.00 0.00 86 1016.7
20260507002050 6 70 1.6 6.4 0.00 0.00 0.00 86 1016.8
20260507001051 6 34 1.6 3.2 0.00 0.00 0.00 86 1016.8
20260507000050 6 34 1.6 8.0 0.00 0.00 0.00 86 1016.9
20260506235051 6 58 3.2 8.0 0.00 0.00 0.00 87 1016.8
20260506234051 6 32 3.2 8.0 0.00 0.00 0.00 87 1016.9
20260506233050 5 46 1.6 6.4 0.00 0.00 0.00 86 1016.8
20260506232048 5 27 1.6 4.8 0.00 0.00 0.00 86 1016.9
20260506231048 5 30 1.6 4.8 0.00 0.00 0.00 86 1016.9
20260506230047 6 31 0.0 1.6 0.00 0.00 0.00 86 1016.9
20260506225048 6 28 0.0 3.2 0.00 0.00 0.00 85 1016.8
20260506223047 6 31 0.0 3.2 0.00 0.00 0.00 84 1016.9
20260506221045 6 48 1.6 4.8 0.00 0.00 0.00 84 1016.8
20260506220045 6 50 1.6 4.8 0.00 0.00 0.00 83 1016.7
20260506215044 6 321 1.6 8.0 0.00 0.00 0.00 83 1016.5
20260506214045 7 60 1.6 8.0 0.00 0.00 0.00 83 1016.6
20260506213045 7 48 1.6 4.8 0.00 0.00 0.00 82 1016.4
20260506212045 7 52 3.2 9.7 0.00 0.00 0.00 82 1016.3
20260506210043 7 49 1.6 9.7 0.00 0.00 0.00 81 1016.1
20260506204043 8 35 3.2 11.3 0.00 0.00 0.00 79 1015.9
20260506203044 8 18 4.8 11.3 0.00 0.00 0.00 79 1015.7
20260506202042 8 37 3.2 9.7 0.00 0.00 0.00 78 1015.7
20260506201042 8 32 3.2 12.9 0.00 0.00 0.00 76 1015.7
20260506200039 9 57 3.2 8.0 0.00 0.00 0.00 75 1015.3
20260506193035 10 39 3.2 11.3 0.00 0.00 0.00 72 1015.1
20260506192034 10 37 3.2 9.7 0.00 0.00 0.00 70 1015.1
20260506191034 11 37 3.2 9.7 0.00 0.00 0.00 69 1015.1
20260506190035 11 356 4.8 11.3 0.00 0.00 0.00 68 1015.1
20260506185035 11 37 4.8 11.3 0.00 0.00 0.00 67 1015.1
20260506183036 11 6 6.4 16.1 0.00 0.00 0.00 66 1015.0
20260506182034 11 51 8.0 17.7 0.00 0.00 0.00 65 1014.9
20260506181034 12 95 6.4 19.3 0.00 0.00 0.00 63 1014.9
20260506180034 12 56 4.8 11.3 0.00 0.00 0.00 63 1014.8
20260506174033 12 32 6.4 17.7 0.00 0.00 0.00 58 1014.5
20260506173033 13 68 8.0 17.7 0.00 0.00 0.00 56 1014.5
20260506172034 13 18 6.4 14.5 0.00 0.00 0.00 52 1014.5
20260506171036 13 10 4.8 14.5 0.00 0.00 0.00 48 1014.4
20260506164036 13 21 4.8 9.7 0.00 0.00 0.00 49 1014.4
20260506163036 13 36 4.8 12.9 0.00 0.00 0.00 49 1014.5
20260506162034 13 34 4.8 12.9 0.00 0.00 0.00 51 1014.4
20260506161038 13 60 6.4 16.1 0.00 0.00 0.00 50 1014.4
20260506160035 13 105 4.8 16.1 0.00 0.00 0.00 50 1014.3
20260506155035 13 352 4.8 11.3 0.00 0.00 0.00 47 1014.3
20260506154043 13 69 4.8 12.9 0.00 0.00 0.00 48 1014.4
20260506153035 14 4 3.2 9.7 0.00 0.00 0.00 49 1014.3
20260506152035 14 58 1.6 8.0 0.00 0.00 0.00 48 1014.3
20260506150036 14 344 3.2 12.9 0.00 0.00 0.00 49 1014.5
20260506144036 13 321 6.4 17.7 0.00 0.00 0.00 50 1014.5
20260506143037 13 30 6.4 17.7 0.00 0.00 0.00 50 1014.6